Change the Weather History Date:

Thursday, November 8, 2012

  Actual Average Record
Temperature  
Mean Temperature 46 °F -  
Max Temperature 60 °F 47 °F 82 °F (2006)
Min Temperature 33 °F 30 °F 19 °F (2000)
Degree Days  
Heating Degree Days 18    
Moisture  
Dew Point 34 °F    
Average Humidity 67    
Maximum Humidity 93    
Minimum Humidity 36    
Precipitation  
Precipitation 0.00 in - - ()
Sea Level Pressure  
Sea Level Pressure 29.92 in    
Wind  
Wind Speed 13 mph (South)    
Max Wind Speed 25 mph    
Max Gust Speed 31 mph    
Visibility 10 miles    
Events      
Averages and records for this station are not official NWS values.
T = Trace of Precipitation, MM = Missing Value Source: NWS Daily Summary

Daily Weather History Graph

Daily Weather History Graph

Search for Another Location

Airport or City:

Trip Planner

Search our weather history database for the weather conditions in past years. The results will help you decide how hot, cold, wet, or windy it might be!

Date:

Astronomy

Nov. 08, 2012 Rise Set
Actual Time 7:04 AM CST 5:04 PM CST
Civil Twilight 6:34 AM CST 5:34 PM CST
Nautical Twilight 6:00 AM CST 6:08 PM CST
Astronomical Twilight 5:27 AM CST 6:41 PM CST
Moon 12:52 AM CST (11/8) 1:53 PM CST (11/8)
Length of Visible Light 11h 00m
Length of Day
10h 00m
Waning Crescent, 32% of the Moon is Illuminated
Nov 8
Waning Crescent
Nov 13
New
Nov 20
First Quarter
Nov 28
Full
Dec 6
Last Quarter

Hourly Weather History & Observations

Time (CST) Temp. Windchill Dew Point Humidity Pressure Visibility Wind Dir Wind Speed Gust Speed Precip Events Conditions
12:15 AM 33.8 °F 24.3 °F 32.0 °F 93% 30.01 in 10.0 mi SSE 13.8 mph - N/A   Clear
12:35 AM 33.8 °F 24.3 °F 32.0 °F 93% 30.01 in 10.0 mi SSE 13.8 mph - N/A   Clear
1:15 AM 33.8 °F 24.3 °F 32.0 °F 93% 29.99 in 10.0 mi SSE 13.8 mph - N/A   Clear
1:35 AM 33.8 °F 24.8 °F 32.0 °F 93% 29.99 in 10.0 mi SSE 12.7 mph - N/A   Clear
1:55 AM 33.8 °F 24.8 °F 32.0 °F 93% 29.98 in 10.0 mi SSE 12.7 mph - N/A   Clear
2:15 AM 33.8 °F 25.3 °F 32.0 °F 93% 29.99 in 10.0 mi SSE 11.5 mph - N/A   Clear
2:35 AM 33.8 °F 23.9 °F 32.0 °F 93% 29.98 in 10.0 mi SSE 15.0 mph - N/A   Clear
2:55 AM 33.8 °F 24.3 °F 32.0 °F 93% 29.97 in 10.0 mi South 13.8 mph - N/A   Clear
3:15 AM 33.8 °F 24.3 °F 32.0 °F 93% 29.96 in - South 13.8 mph - N/A   Unknown
3:35 AM 33.8 °F 23.9 °F 32.0 °F 93% 29.96 in 10.0 mi South 15.0 mph - N/A   Clear
3:55 AM 33.8 °F 24.8 °F 32.0 °F 93% 29.96 in 10.0 mi South 12.7 mph - N/A   Clear
4:15 AM 33.8 °F 24.3 °F 32.0 °F 93% 29.96 in 10.0 mi South 13.8 mph - N/A   Clear
4:35 AM 33.8 °F 24.8 °F 32.0 °F 93% 29.95 in 10.0 mi South 12.7 mph - N/A   Clear
4:55 AM 33.8 °F 24.3 °F 32.0 °F 93% 29.95 in 10.0 mi South 13.8 mph - N/A   Clear
5:15 AM 35.6 °F 25.9 °F 32.0 °F 87% 29.94 in 10.0 mi South 16.1 mph - N/A   Clear
5:35 AM 35.6 °F 25.9 °F 32.0 °F 87% 29.94 in 10.0 mi South 16.1 mph - N/A   Clear
6:15 AM 35.6 °F 26.2 °F 32.0 °F 87% 29.92 in 10.0 mi South 15.0 mph - N/A   Clear
6:35 AM 35.6 °F 26.6 °F 32.0 °F 87% 29.92 in 10.0 mi South 13.8 mph - N/A   Clear
6:55 AM 35.6 °F 25.5 °F 32.0 °F 87% 29.92 in 10.0 mi South 17.3 mph - N/A   Clear
7:15 AM 35.6 °F 25.5 °F 32.0 °F 87% 29.92 in 10.0 mi South 17.3 mph - N/A   Clear
7:35 AM 35.6 °F 25.9 °F 32.0 °F 87% 29.92 in 10.0 mi South 16.1 mph - N/A   Clear
7:55 AM 37.4 °F 28.2 °F 33.8 °F 87% 29.93 in 10.0 mi South 16.1 mph - N/A   Clear
8:15 AM 39.2 °F 29.8 °F 33.8 °F 81% 29.93 in 10.0 mi South 18.4 mph - N/A   Clear
8:35 AM 41.0 °F 31.6 °F 35.6 °F 81% 29.92 in 10.0 mi South 20.7 mph - N/A   Clear
8:55 AM 42.8 °F 33.8 °F 35.6 °F 76% 29.92 in 10.0 mi South 21.9 mph - N/A   Clear
9:15 AM 44.6 °F 36.1 °F 35.6 °F 71% 29.93 in 10.0 mi South 21.9 mph - N/A   Clear
9:35 AM 46.4 °F 38.5 °F 35.6 °F 66% 29.93 in 10.0 mi South 21.9 mph - N/A   Clear
9:55 AM 50.0 °F - 35.6 °F 58% 29.92 in 10.0 mi SSW 23.0 mph 29.9 mph N/A   Clear
10:15 AM 50.0 °F - 35.6 °F 58% 29.93 in 10.0 mi SSW 20.7 mph 26.5 mph N/A   Clear
10:35 AM 51.8 °F - 35.6 °F 54% 29.93 in 10.0 mi SSW 19.6 mph 25.3 mph N/A   Clear
10:55 AM 53.6 °F - 35.6 °F 51% 29.92 in 10.0 mi SSW 19.6 mph 26.5 mph N/A   Clear
11:15 AM 55.4 °F - 35.6 °F 47% 29.91 in 10.0 mi SSW 19.6 mph 29.9 mph N/A   Clear
11:35 AM 57.2 °F - 33.8 °F 41% 29.90 in 10.0 mi SSW 25.3 mph 31.1 mph N/A   Clear
11:55 AM 57.2 °F - 33.8 °F 41% 29.89 in 10.0 mi SSW 20.7 mph 28.8 mph N/A   Clear
12:15 PM 59.0 °F - 33.8 °F 39% 29.88 in 10.0 mi SSW 24.2 mph 29.9 mph N/A   Clear
12:35 PM 59.0 °F - 33.8 °F 39% 29.88 in 10.0 mi SW 18.4 mph 24.2 mph N/A   Clear
12:55 PM 59.0 °F - 33.8 °F 39% 29.87 in 10.0 mi SSW 18.4 mph - N/A   Clear
1:15 PM 59.0 °F - 33.8 °F 39% 29.87 in 10.0 mi SSW 16.1 mph 23.0 mph N/A   Clear
1:35 PM 60.8 °F - 33.8 °F 36% 29.87 in 10.0 mi SSW 16.1 mph 24.2 mph N/A   Clear
1:55 PM 60.8 °F - 33.8 °F 36% 29.87 in 10.0 mi SSW 12.7 mph - N/A   Clear
2:15 PM 60.8 °F - 33.8 °F 36% 29.87 in 10.0 mi SSW 11.5 mph - N/A   Clear
2:35 PM 60.8 °F - 33.8 °F 36% 29.87 in 10.0 mi SW 10.4 mph - N/A   Clear
2:55 PM 60.8 °F - 33.8 °F 36% 29.87 in 10.0 mi SSW 9.2 mph - N/A   Clear
3:15 PM 59.0 °F - 33.8 °F 39% 29.88 in 10.0 mi SW 8.1 mph - N/A   Clear
3:35 PM 59.0 °F - 33.8 °F 39% 29.88 in 10.0 mi SW 5.8 mph - N/A   Clear
3:55 PM 59.0 °F - 35.6 °F 42% 29.89 in 10.0 mi SW 3.5 mph - N/A   Clear
4:15 PM 59.0 °F - 35.6 °F 42% 29.89 in 10.0 mi WSW 4.6 mph - N/A   Clear
4:35 PM 57.2 °F - 35.6 °F 44% 29.89 in 10.0 mi Calm Calm - N/A   Clear
4:55 PM 55.4 °F - 35.6 °F 47% 29.89 in 10.0 mi Calm Calm - N/A   Clear
5:15 PM 55.4 °F - 35.6 °F 47% 29.89 in 10.0 mi Calm Calm - N/A   Clear
5:35 PM 53.6 °F - 33.8 °F 47% 29.89 in 10.0 mi Calm Calm - N/A   Clear
5:55 PM 51.8 °F - 33.8 °F 50% 29.90 in 10.0 mi Calm Calm - N/A   Clear
6:15 PM 51.8 °F - 35.6 °F 54% 29.91 in 10.0 mi Calm Calm - N/A   Clear
6:35 PM 51.8 °F - 35.6 °F 54% 29.91 in 10.0 mi Calm Calm - N/A   Clear
6:55 PM 51.8 °F - 35.6 °F 54% 29.91 in 10.0 mi NNE 3.5 mph - N/A   Clear
7:15 PM 48.2 °F - 33.8 °F 58% 29.91 in 10.0 mi NNE 6.9 mph - N/A   Clear
7:35 PM 48.2 °F - 33.8 °F 58% 29.91 in 10.0 mi NE 6.9 mph - N/A   Clear
7:55 PM 48.2 °F - 35.6 °F 62% 29.91 in 10.0 mi NE 8.1 mph - N/A   Clear
8:15 PM 46.4 °F 42.4 °F 35.6 °F 66% 29.91 in 10.0 mi NE 8.1 mph - N/A   Clear
8:35 PM 46.4 °F 42.4 °F 35.6 °F 66% 29.92 in 10.0 mi NE 8.1 mph - N/A   Clear
8:55 PM 44.6 °F 40.7 °F 35.6 °F 71% 29.91 in - NE 6.9 mph - N/A   Clear
9:15 PM 46.4 °F 42.4 °F 35.6 °F 66% 29.91 in 10.0 mi NE 8.1 mph - N/A   Clear
9:35 PM 44.6 °F 40.2 °F 35.6 °F 71% 29.91 in 10.0 mi NNE 8.1 mph - N/A   Clear
9:55 PM 41.0 °F 35.2 °F 35.6 °F 81% 29.91 in 10.0 mi NNE 9.2 mph - N/A   Clear
10:15 PM 42.8 °F 38.0 °F 35.6 °F 76% 29.91 in 10.0 mi North 8.1 mph - N/A   Clear
10:35 PM 41.0 °F 34.7 °F 33.8 °F 76% 29.91 in 10.0 mi North 10.4 mph - N/A   Clear
10:55 PM 41.0 °F 33.9 °F 35.6 °F 81% 29.91 in 10.0 mi North 12.7 mph - N/A   Clear
11:15 PM 39.2 °F 31.6 °F 35.6 °F 87% 29.91 in 10.0 mi North 12.7 mph - N/A   Clear
11:35 PM 39.2 °F 31.6 °F 35.6 °F 87% 29.91 in 10.0 mi North 12.7 mph - N/A   Clear
11:55 PM 37.4 °F 29.8 °F 35.6 °F 93% 29.91 in 10.0 mi NNE 11.5 mph - N/A   Clear